owner,sensor,date,latitude,longitude,vertical_datum,direction_of_sea_water_velocity,sea_water_speed,upward_sea_water_velocity,qcFlag 
ADCP,ioos:station:wmo:42890:1,2013-08-01T00:12:00Z,27.6250,-90.4410,15.2,204.0,33.0,-9999.0,'11111222,11111222,99999999' 
ADCP,ioos:station:wmo:42890:1,2013-08-01T00:32:00Z,27.6250,-90.4410,15.2,216.0,40.9,-9999.0,'11111222,11111222,99999999' 
ADCP,ioos:station:wmo:42890:1,2013-08-01T00:52:00Z,27.6250,-90.4410,15.2,219.0,41.7,-9999.0,'11111222,11111222,99999999' 
ADCP,ioos:station:wmo:42890:1,2013-08-01T01:12:00Z,27.6250,-90.4410,15.2,222.0,40.6,-9999.0,'11111222,11111222,99999999' 
ADCP,ioos:station:wmo:42890:1,2013-08-01T01:32:00Z,27.6250,-90.4410,15.2,220.0,35.1,-9999.0,'11111222,11111222,99999999' 
ADCP,ioos:station:wmo:42890:1,2013-08-01T01:52:00Z,27.6250,-90.4410,15.2,220.0,35.5,-9999.0,'11111222,11111222,99999999' 
ADCP,ioos:station:wmo:42890:1,2013-08-01T02:12:00Z,27.6250,-90.4410,15.2,216.0,31.9,-9999.0,'11111222,11111222,99999999' 
ADCP,ioos:station:wmo:42890:1,2013-08-01T02:32:00Z,27.6250,-90.4410,15.2,223.0,30.1,-9999.0,'11111222,11111222,99999999' 
ADCP,ioos:station:wmo:42890:1,2013-08-01T02:52:00Z,27.6250,-90.4410,15.2,218.0,28.8,-9999.0,'11111222,11111222,99999999' 
ADCP,ioos:station:wmo:42890:1,2013-08-01T03:12:00Z,27.6250,-90.4410,15.2,213.0,23.8,-9999.0,'11111222,11111222,99999999' 
ADCP,ioos:station:wmo:42890:1,2013-08-01T03:32:00Z,27.6250,-90.4410,15.2,213.0,21.7,-9999.0,'11111222,11111222,99999999' 
ADCP,ioos:station:wmo:42890:1,2013-08-01T03:52:00Z,27.6250,-90.4410,15.2,173.0,12.8,-9999.0,'11111222,11111222,99999999' 
ADCP,ioos:station:wmo:42890:1,2013-08-01T04:12:00Z,27.6250,-90.4410,15.2,112.0,20.9,-9999.0,'11111222,11111222,99999999' 
ADCP,ioos:station:wmo:42890:1,2013-08-01T04:32:00Z,27.6250,-90.4410,15.2,148.0,13.9,-9999.0,'11111222,11111222,99999999' 
ADCP,ioos:station:wmo:42890:1,2013-08-01T04:52:00Z,27.6250,-90.4410,15.2,163.0,13.1,-9999.0,'11111222,11111222,99999999' 
ADCP,ioos:station:wmo:42890:1,2013-08-01T05:12:00Z,27.6250,-90.4410,15.2,127.0,16.2,-9999.0,'11111222,11111222,99999999' 
ADCP,ioos:station:wmo:42890:1,2013-08-01T05:32:00Z,27.6250,-90.4410,15.2,144.0,18.4,-9999.0,'11111222,11111222,99999999' 
ADCP,ioos:station:wmo:42890:1,2013-08-01T05:52:00Z,27.6250,-90.4410,15.2,112.0,19.1,-9999.0,'11111222,11111222,99999999' 
ADCP,ioos:station:wmo:42890:1,2013-08-01T06:12:00Z,27.6250,-90.4410,15.2,216.0,30.4,-9999.0,'11111222,11111222,99999999' 
ADCP,ioos:station:wmo:42890:1,2013-08-01T06:32:00Z,27.6250,-90.4410,15.2,135.0,14.2,-9999.0,'11111222,11111222,99999999' 
ADCP,ioos:station:wmo:42890:1,2013-08-01T06:52:00Z,27.6250,-90.4410,15.2,175.0,8.1,-9999.0,'11133222,11111222,99999999' 
ADCP,ioos:station:wmo:42890:1,2013-08-01T07:12:00Z,27.6250,-90.4410,15.2,105.0,8.1,-9999.0,'11133222,11111222,99999999' 
ADCP,ioos:station:wmo:42890:1,2013-08-01T07:32:00Z,27.6250,-90.4410,15.2,135.0,10.7,-9999.0,'11111222,11111222,99999999' 
ADCP,ioos:station:wmo:42890:1,2013-08-01T07:52:00Z,27.6250,-90.4410,15.2,199.0,10.3,-9999.0,'11111222,11111222,99999999' 
ADCP,ioos:station:wmo:42890:1,2013-08-01T08:12:00Z,27.6250,-90.4410,15.2,101.0,7.6,-9999.0,'11133222,11111222,99999999' 
ADCP,ioos:station:wmo:42890:1,2013-08-01T08:32:00Z,27.6250,-90.4410,15.2,100.0,9.9,-9999.0,'11133222,11111222,99999999' 
ADCP,ioos:station:wmo:42890:1,2013-08-01T08:52:00Z,27.6250,-90.4410,15.2,75.0,7.8,-9999.0,'11133222,11111222,99999999' 
ADCP,ioos:station:wmo:42890:1,2013-08-01T09:12:00Z,27.6250,-90.4410,15.2,184.0,3.0,-9999.0,'11133222,11111222,99999999' 
ADCP,ioos:station:wmo:42890:1,2013-08-01T09:32:00Z,27.6250,-90.4410,15.2,79.0,15.4,-9999.0,'11111222,11111222,99999999' 
ADCP,ioos:station:wmo:42890:1,2013-08-01T09:52:00Z,27.6250,-90.4410,15.2,145.0,5.5,-9999.0,'11133222,11111222,99999999' 
ADCP,ioos:station:wmo:42890:1,2013-08-01T10:12:00Z,27.6250,-90.4410,15.2,98.0,6.9,-9999.0,'11133222,11111222,99999999' 
ADCP,ioos:station:wmo:42890:1,2013-08-01T10:32:00Z,27.6250,-90.4410,15.2,72.0,3.9,-9999.0,'11133222,11111222,99999999' 
ADCP,ioos:station:wmo:42890:1,2013-08-01T10:52:00Z,27.6250,-90.4410,15.2,79.0,12.0,-9999.0,'11111222,11111222,99999999' 
ADCP,ioos:station:wmo:42890:1,2013-08-01T11:12:00Z,27.6250,-90.4410,15.2,69.0,7.7,-9999.0,'11133222,11111222,99999999' 
ADCP,ioos:station:wmo:42890:1,2013-08-01T11:32:00Z,27.6250,-90.4410,15.2,80.0,7.2,-9999.0,'11133222,11111222,99999999' 
ADCP,ioos:station:wmo:42890:1,2013-08-01T11:52:00Z,27.6250,-90.4410,15.2,44.0,6.2,-9999.0,'11133222,11111222,99999999' 
ADCP,ioos:station:wmo:42890:1,2013-08-01T12:12:00Z,27.6250,-90.4410,15.2,52.0,13.4,-9999.0,'11111222,11111222,99999999' 
ADCP,ioos:station:wmo:42890:1,2013-08-01T12:32:00Z,27.6250,-90.4410,15.2,40.0,10.1,-9999.0,'11111222,11111222,99999999' 
ADCP,ioos:station:wmo:42890:1,2013-08-01T12:52:00Z,27.6250,-90.4410,15.2,30.0,7.7,-9999.0,'11133222,11111222,99999999' 
ADCP,ioos:station:wmo:42890:1,2013-08-01T13:12:00Z,27.6250,-90.4410,15.2,34.0,9.9,-9999.0,'11133222,11111222,99999999' 
ADCP,ioos:station:wmo:42890:1,2013-08-01T13:32:00Z,27.6250,-90.4410,15.2,47.0,17.5,-9999.0,'11111222,11111222,99999999' 
ADCP,ioos:station:wmo:42890:1,2013-08-01T14:03:00Z,27.6250,-90.4410,15.2,40.0,16.0,-9999.0,'11111222,11111222,99999999' 
ADCP,ioos:station:wmo:42890:1,2013-08-01T14:23:00Z,27.6250,-90.4410,15.2,35.0,10.3,-9999.0,'11111222,11111222,99999999' 
ADCP,ioos:station:wmo:42890:1,2013-08-01T14:43:00Z,27.6250,-90.4410,15.2,52.0,14.6,-9999.0,'11111222,11111222,99999999' 
ADCP,ioos:station:wmo:42890:1,2013-08-01T15:03:00Z,27.6250,-90.4410,15.2,58.0,20.1,-9999.0,'11111222,11111222,99999999' 
ADCP,ioos:station:wmo:42890:1,2013-08-01T15:23:00Z,27.6250,-90.4410,15.2,53.0,14.4,-9999.0,'11111222,11111222,99999999' 
ADCP,ioos:station:wmo:42890:1,2013-08-01T15:43:00Z,27.6250,-90.4410,15.2,64.0,12.4,-9999.0,'11111222,11111222,99999999' 
ADCP,ioos:station:wmo:42890:1,2013-08-01T16:03:00Z,27.6250,-90.4410,15.2,64.0,21.8,-9999.0,'11111222,11111222,99999999' 
ADCP,ioos:station:wmo:42890:1,2013-08-01T16:23:00Z,27.6250,-90.4410,15.2,69.0,19.1,-9999.0,'11111222,11111222,99999999' 
ADCP,ioos:station:wmo:42890:1,2013-08-01T16:43:00Z,27.6250,-90.4410,15.2,65.0,15.3,-9999.0,'11111222,11111222,99999999' 
ADCP,ioos:station:wmo:42890:1,2013-08-01T17:03:00Z,27.6250,-90.4410,15.2,42.0,23.6,-9999.0,'11111222,11111222,99999999' 
ADCP,ioos:station:wmo:42890:1,2013-08-01T17:23:00Z,27.6250,-90.4410,15.2,54.0,12.0,-9999.0,'11111222,11111222,99999999' 
ADCP,ioos:station:wmo:42890:1,2013-08-01T17:43:00Z,27.6250,-90.4410,15.2,68.0,21.3,-9999.0,'11111222,11111222,99999999' 
ADCP,ioos:station:wmo:42890:1,2013-08-01T18:03:00Z,27.6250,-90.4410,15.2,70.0,9.0,-9999.0,'11133222,11111222,99999999' 
ADCP,ioos:station:wmo:42890:1,2013-08-01T18:23:00Z,27.6250,-90.4410,15.2,72.0,15.8,-9999.0,'11111222,11111222,99999999' 
ADCP,ioos:station:wmo:42890:1,2013-08-01T18:43:00Z,27.6250,-90.4410,15.2,237.0,20.9,-9999.0,'11111222,11111222,99999999' 
ADCP,ioos:station:wmo:42890:1,2013-08-01T19:03:00Z,27.6250,-90.4410,15.2,214.0,17.2,-9999.0,'11111222,11111222,99999999' 
ADCP,ioos:station:wmo:42890:1,2013-08-01T19:23:00Z,27.6250,-90.4410,15.2,192.0,23.3,-9999.0,'11111222,11111222,99999999' 
ADCP,ioos:station:wmo:42890:1,2013-08-01T19:43:00Z,27.6250,-90.4410,15.2,226.0,26.8,-9999.0,'11111222,11111222,99999999' 
ADCP,ioos:station:wmo:42890:1,2013-08-01T20:03:00Z,27.6250,-90.4410,15.2,176.0,21.0,-9999.0,'11111222,11111222,99999999' 
ADCP,ioos:station:wmo:42890:1,2013-08-01T20:23:00Z,27.6250,-90.4410,15.2,182.0,25.0,-9999.0,'11111222,11111222,99999999' 
ADCP,ioos:station:wmo:42890:1,2013-08-01T20:43:00Z,27.6250,-90.4410,15.2,200.0,24.7,-9999.0,'11111222,11111222,99999999' 
ADCP,ioos:station:wmo:42890:1,2013-08-01T21:03:00Z,27.6250,-90.4410,15.2,223.0,36.9,-9999.0,'11111222,11111222,99999999' 
ADCP,ioos:station:wmo:42890:1,2013-08-01T21:23:00Z,27.6250,-90.4410,15.2,221.0,30.4,-9999.0,'11111222,11111222,99999999' 
ADCP,ioos:station:wmo:42890:1,2013-08-01T21:43:00Z,27.6250,-90.4410,15.2,227.0,33.1,-9999.0,'11111222,11111222,99999999' 
ADCP,ioos:station:wmo:42890:1,2013-08-01T22:03:00Z,27.6250,-90.4410,15.2,142.0,16.5,-9999.0,'11111222,11111222,99999999' 
ADCP,ioos:station:wmo:42890:1,2013-08-01T22:23:00Z,27.6250,-90.4410,15.2,144.0,15.0,-9999.0,'11111222,11111222,99999999' 
ADCP,ioos:station:wmo:42890:1,2013-08-01T22:43:00Z,27.6250,-90.4410,15.2,169.0,14.1,-9999.0,'11111222,11111222,99999999' 
ADCP,ioos:station:wmo:42890:1,2013-08-01T23:03:00Z,27.6250,-90.4410,15.2,208.0,17.7,-9999.0,'11111222,11111222,99999999' 
ADCP,ioos:station:wmo:42890:1,2013-08-01T23:23:00Z,27.6250,-90.4410,15.2,219.0,19.1,-9999.0,'11111222,11111222,99999999' 
ADCP,ioos:station:wmo:42890:1,2013-08-01T23:43:00Z,27.6250,-90.4410,15.2,215.0,19.5,-9999.0,'11111222,11111222,99999999' 
ADCP,ioos:station:wmo:42890:1,2013-08-02T00:03:00Z,27.6250,-90.4410,15.2,209.0,18.6,-9999.0,'11111222,11111222,99999999' 
ADCP,ioos:station:wmo:42890:1,2013-08-02T00:23:00Z,27.6250,-90.4410,15.2,208.0,21.7,-9999.0,'11111222,11111222,99999999' 
ADCP,ioos:station:wmo:42890:1,2013-08-02T00:43:00Z,27.6250,-90.4410,15.2,218.0,24.9,-9999.0,'11111222,11111222,99999999' 
ADCP,ioos:station:wmo:42890:1,2013-08-02T01:03:00Z,27.6250,-90.4410,15.2,221.0,32.1,-9999.0,'11111222,11111222,99999999' 
ADCP,ioos:station:wmo:42890:1,2013-08-02T01:23:00Z,27.6250,-90.4410,15.2,227.0,35.8,-9999.0,'11111222,11111222,99999999' 
ADCP,ioos:station:wmo:42890:1,2013-08-02T01:43:00Z,27.6250,-90.4410,15.2,223.0,38.9,-9999.0,'11111222,11111222,99999999' 
ADCP,ioos:station:wmo:42890:1,2013-08-02T02:03:00Z,27.6250,-90.4410,15.2,226.0,30.5,-9999.0,'11111222,11111222,99999999' 
ADCP,ioos:station:wmo:42890:1,2013-08-02T02:23:00Z,27.6250,-90.4410,15.2,229.0,29.5,-9999.0,'11111222,11111222,99999999' 
ADCP,ioos:station:wmo:42890:1,2013-08-02T02:43:00Z,27.6250,-90.4410,15.2,237.0,41.9,-9999.0,'11111222,11111222,99999999' 
ADCP,ioos:station:wmo:42890:1,2013-08-02T03:03:00Z,27.6250,-90.4410,15.2,239.0,46.3,-9999.0,'11111222,11111222,99999999' 
ADCP,ioos:station:wmo:42890:1,2013-08-02T03:23:00Z,27.6250,-90.4410,15.2,238.0,32.4,-9999.0,'11111222,11111222,99999999' 
ADCP,ioos:station:wmo:42890:1,2013-08-02T03:43:00Z,27.6250,-90.4410,15.2,243.0,27.5,-9999.0,'11111222,11111222,99999999' 
ADCP,ioos:station:wmo:42890:1,2013-08-02T04:03:00Z,27.6250,-90.4410,15.2,244.0,32.2,-9999.0,'11111222,11111222,99999999' 
ADCP,ioos:station:wmo:42890:1,2013-08-02T04:23:00Z,27.6250,-90.4410,15.2,239.0,16.2,-9999.0,'11111222,11111222,99999999' 
ADCP,ioos:station:wmo:42890:1,2013-08-02T04:43:00Z,27.6250,-90.4410,15.2,249.0,14.8,-9999.0,'11111222,11111222,99999999' 
ADCP,ioos:station:wmo:42890:1,2013-08-02T05:03:00Z,27.6250,-90.4410,15.2,246.0,17.9,-9999.0,'11111222,11111222,99999999' 
ADCP,ioos:station:wmo:42890:1,2013-08-02T05:23:00Z,27.6250,-90.4410,15.2,253.0,17.1,-9999.0,'11111222,11111222,99999999' 
ADCP,ioos:station:wmo:42890:1,2013-08-02T05:43:00Z,27.6250,-90.4410,15.2,265.0,16.0,-9999.0,'11111222,11111222,99999999' 
ADCP,ioos:station:wmo:42890:1,2013-08-02T06:03:00Z,27.6250,-90.4410,15.2,49.0,30.2,-9999.0,'11111222,11111222,99999999' 
ADCP,ioos:station:wmo:42890:1,2013-08-02T06:23:00Z,27.6250,-90.4410,15.2,249.0,48.1,-9999.0,'11111222,11111222,99999999' 
ADCP,ioos:station:wmo:42890:1,2013-08-02T06:43:00Z,27.6250,-90.4410,15.2,291.0,10.8,-9999.0,'11111222,11111222,99999999' 
ADCP,ioos:station:wmo:42890:1,2013-08-02T07:03:00Z,27.6250,-90.4410,15.2,324.0,12.0,-9999.0,'11111222,11111222,99999999' 
ADCP,ioos:station:wmo:42890:1,2013-08-02T07:23:00Z,27.6250,-90.4410,15.2,281.0,22.9,-9999.0,'11111222,11111222,99999999' 
ADCP,ioos:station:wmo:42890:1,2013-08-02T07:43:00Z,27.6250,-90.4410,15.2,7.0,14.6,-9999.0,'11111222,11111222,99999999' 
ADCP,ioos:station:wmo:42890:1,2013-08-02T08:03:00Z,27.6250,-90.4410,15.2,9.0,15.5,-9999.0,'11111222,11111222,99999999' 
ADCP,ioos:station:wmo:42890:1,2013-08-02T08:23:00Z,27.6250,-90.4410,15.2,15.0,18.8,-9999.0,'11111222,11111222,99999999' 
ADCP,ioos:station:wmo:42890:1,2013-08-02T08:43:00Z,27.6250,-90.4410,15.2,37.0,24.5,-9999.0,'11111222,11111222,99999999' 
ADCP,ioos:station:wmo:42890:1,2013-08-02T09:03:00Z,27.6250,-90.4410,15.2,42.0,21.9,-9999.0,'11111222,11111222,99999999' 
ADCP,ioos:station:wmo:42890:1,2013-08-02T09:23:00Z,27.6250,-90.4410,15.2,39.0,24.0,-9999.0,'11111222,11111222,99999999' 
ADCP,ioos:station:wmo:42890:1,2013-08-02T09:43:00Z,27.6250,-90.4410,15.2,53.0,29.5,-9999.0,'11111222,11111222,99999999' 
ADCP,ioos:station:wmo:42890:1,2013-08-02T10:03:00Z,27.6250,-90.4410,15.2,30.0,23.5,-9999.0,'11111222,11111222,99999999' 
ADCP,ioos:station:wmo:42890:1,2013-08-02T10:23:00Z,27.6250,-90.4410,15.2,46.0,20.2,-9999.0,'11111222,11111222,99999999' 
ADCP,ioos:station:wmo:42890:1,2013-08-02T10:43:00Z,27.6250,-90.4410,15.2,29.0,10.4,-9999.0,'11111222,11111222,99999999' 
ADCP,ioos:station:wmo:42890:1,2013-08-02T11:03:00Z,27.6250,-90.4410,15.2,38.0,9.8,-9999.0,'11133222,11111222,99999999' 
ADCP,ioos:station:wmo:42890:1,2013-08-02T11:23:00Z,27.6250,-90.4410,15.2,50.0,10.4,-9999.0,'11111222,11111222,99999999' 
ADCP,ioos:station:wmo:42890:1,2013-08-02T11:43:00Z,27.6250,-90.4410,15.2,46.0,5.0,-9999.0,'11133222,11111222,99999999' 
ADCP,ioos:station:wmo:42890:1,2013-08-02T12:03:00Z,27.6250,-90.4410,15.2,36.0,5.7,-9999.0,'11133222,11111222,99999999' 
ADCP,ioos:station:wmo:42890:1,2013-08-02T12:23:00Z,27.6250,-90.4410,15.2,27.0,6.8,-9999.0,'11133222,11111222,99999999' 
ADCP,ioos:station:wmo:42890:1,2013-08-02T12:43:00Z,27.6250,-90.4410,15.2,38.0,6.6,-9999.0,'11133222,11111222,99999999' 
ADCP,ioos:station:wmo:42890:1,2013-08-02T13:03:00Z,27.6250,-90.4410,15.2,31.0,8.1,-9999.0,'11133222,11111222,99999999' 
ADCP,ioos:station:wmo:42890:1,2013-08-02T13:23:00Z,27.6250,-90.4410,15.2,40.0,7.4,-9999.0,'11133222,11111222,99999999' 
ADCP,ioos:station:wmo:42890:1,2013-08-02T13:43:00Z,27.6250,-90.4410,15.2,50.0,8.1,-9999.0,'11133222,11111222,99999999' 
ADCP,ioos:station:wmo:42890:1,2013-08-02T14:03:00Z,27.6250,-90.4410,15.2,28.0,4.7,-9999.0,'11133222,11111222,99999999' 
ADCP,ioos:station:wmo:42890:1,2013-08-02T14:23:00Z,27.6250,-90.4410,15.2,41.0,6.4,-9999.0,'11133222,11111222,99999999' 
ADCP,ioos:station:wmo:42890:1,2013-08-02T14:43:00Z,27.6250,-90.4410,15.2,41.0,7.3,-9999.0,'11133222,11111222,99999999' 
ADCP,ioos:station:wmo:42890:1,2013-08-02T15:03:00Z,27.6250,-90.4410,15.2,48.0,11.8,-9999.0,'11111222,11111222,99999999' 
ADCP,ioos:station:wmo:42890:1,2013-08-02T15:23:00Z,27.6250,-90.4410,15.2,6.0,11.7,-9999.0,'11111222,11111222,99999999' 
ADCP,ioos:station:wmo:42890:1,2013-08-02T15:43:00Z,27.6250,-90.4410,15.2,40.0,17.1,-9999.0,'11111222,11111222,99999999' 
ADCP,ioos:station:wmo:42890:1,2013-08-02T16:03:00Z,27.6250,-90.4410,15.2,348.0,9.5,-9999.0,'11133222,11111222,99999999' 
ADCP,ioos:station:wmo:42890:1,2013-08-02T16:23:00Z,27.6250,-90.4410,15.2,21.0,10.3,-9999.0,'11111222,11111222,99999999' 
ADCP,ioos:station:wmo:42890:1,2013-08-02T16:43:00Z,27.6250,-90.4410,15.2,47.0,13.9,-9999.0,'11111222,11111222,99999999' 
ADCP,ioos:station:wmo:42890:1,2013-08-02T17:03:00Z,27.6250,-90.4410,15.2,32.0,9.1,-9999.0,'11133222,11111222,99999999' 
ADCP,ioos:station:wmo:42890:1,2013-08-02T17:23:00Z,27.6250,-90.4410,15.2,31.0,10.6,-9999.0,'11111222,11111222,99999999' 
ADCP,ioos:station:wmo:42890:1,2013-08-02T17:43:00Z,27.6250,-90.4410,15.2,26.0,10.8,-9999.0,'11111222,11111222,99999999' 
ADCP,ioos:station:wmo:42890:1,2013-08-02T18:03:00Z,27.6250,-90.4410,15.2,43.0,8.8,-9999.0,'11133222,11111222,99999999' 
ADCP,ioos:station:wmo:42890:1,2013-08-02T18:23:00Z,27.6250,-90.4410,15.2,52.0,12.4,-9999.0,'11111222,11111222,99999999' 
ADCP,ioos:station:wmo:42890:1,2013-08-02T18:43:00Z,27.6250,-90.4410,15.2,242.0,15.6,-9999.0,'11111222,11111222,99999999' 
ADCP,ioos:station:wmo:42890:1,2013-08-02T19:03:00Z,27.6250,-90.4410,15.2,234.0,21.8,-9999.0,'11111222,11111222,99999999' 
ADCP,ioos:station:wmo:42890:1,2013-08-02T19:23:00Z,27.6250,-90.4410,15.2,234.0,25.7,-9999.0,'11111222,11111222,99999999' 
ADCP,ioos:station:wmo:42890:1,2013-08-02T19:43:00Z,27.6250,-90.4410,15.2,223.0,22.6,-9999.0,'11111222,11111222,99999999' 
ADCP,ioos:station:wmo:42890:1,2013-08-02T20:03:00Z,27.6250,-90.4410,15.2,231.0,32.7,-9999.0,'11111222,11111222,99999999' 
ADCP,ioos:station:wmo:42890:1,2013-08-02T20:23:00Z,27.6250,-90.4410,15.2,213.0,16.5,-9999.0,'11111222,11111222,99999999' 
ADCP,ioos:station:wmo:42890:1,2013-08-02T20:43:00Z,27.6250,-90.4410,15.2,177.0,14.4,-9999.0,'11111222,11111222,99999999' 
ADCP,ioos:station:wmo:42890:1,2013-08-02T21:03:00Z,27.6250,-90.4410,15.2,164.0,15.1,-9999.0,'11111222,11111222,99999999' 
ADCP,ioos:station:wmo:42890:1,2013-08-02T21:23:00Z,27.6250,-90.4410,15.2,176.0,13.5,-9999.0,'11111222,11111222,99999999' 
ADCP,ioos:station:wmo:42890:1,2013-08-02T21:43:00Z,27.6250,-90.4410,15.2,157.0,15.9,-9999.0,'11111222,11111222,99999999' 
ADCP,ioos:station:wmo:42890:1,2013-08-02T22:03:00Z,27.6250,-90.4410,15.2,142.0,20.2,-9999.0,'11111222,11111222,99999999' 
ADCP,ioos:station:wmo:42890:1,2013-08-02T22:23:00Z,27.6250,-90.4410,15.2,142.0,18.8,-9999.0,'11111222,11111222,99999999' 
ADCP,ioos:station:wmo:42890:1,2013-08-02T22:43:00Z,27.6250,-90.4410,15.2,159.0,13.6,-9999.0,'11111222,11111222,99999999' 
ADCP,ioos:station:wmo:42890:1,2013-08-02T23:03:00Z,27.6250,-90.4410,15.2,193.0,17.8,-9999.0,'11111222,11111222,99999999' 
ADCP,ioos:station:wmo:42890:1,2013-08-02T23:23:00Z,27.6250,-90.4410,15.2,178.0,14.5,-9999.0,'11111222,11111222,99999999' 
ADCP,ioos:station:wmo:42890:1,2013-08-02T23:43:00Z,27.6250,-90.4410,15.2,175.0,16.2,-9999.0,'11111222,11111222,99999999' 
ADCP,ioos:station:wmo:42890:1,2013-08-03T00:03:00Z,27.6250,-90.4410,15.2,159.0,19.3,-9999.0,'11111222,11111222,99999999' 
ADCP,ioos:station:wmo:42890:1,2013-08-03T00:23:00Z,27.6250,-90.4410,15.2,143.0,20.2,-9999.0,'11111222,11111222,99999999' 
ADCP,ioos:station:wmo:42890:1,2013-08-03T00:43:00Z,27.6250,-90.4410,15.2,116.0,25.2,-9999.0,'11111222,11111222,99999999' 
ADCP,ioos:station:wmo:42890:1,2013-08-03T01:03:00Z,27.6250,-90.4410,15.2,105.0,28.4,-9999.0,'11111222,11111222,99999999' 
ADCP,ioos:station:wmo:42890:1,2013-08-03T01:23:00Z,27.6250,-90.4410,15.2,132.0,17.3,-9999.0,'11111222,11111222,99999999' 
ADCP,ioos:station:wmo:42890:1,2013-08-03T01:43:00Z,27.6250,-90.4410,15.2,107.0,27.7,-9999.0,'11111222,11111222,99999999' 
ADCP,ioos:station:wmo:42890:1,2013-08-03T02:03:00Z,27.6250,-90.4410,15.2,107.0,33.0,-9999.0,'11111222,11111222,99999999' 
ADCP,ioos:station:wmo:42890:1,2013-08-03T02:23:00Z,27.6250,-90.4410,15.2,113.0,24.7,-9999.0,'11111222,11111222,99999999' 
ADCP,ioos:station:wmo:42890:1,2013-08-03T02:43:00Z,27.6250,-90.4410,15.2,129.0,21.3,-9999.0,'11111222,11111222,99999999' 
ADCP,ioos:station:wmo:42890:1,2013-08-03T03:03:00Z,27.6250,-90.4410,15.2,134.0,21.2,-9999.0,'11111222,11111222,99999999' 
ADCP,ioos:station:wmo:42890:1,2013-08-03T03:23:00Z,27.6250,-90.4410,15.2,113.0,26.6,-9999.0,'11111222,11111222,99999999' 
ADCP,ioos:station:wmo:42890:1,2013-08-03T03:43:00Z,27.6250,-90.4410,15.2,134.0,31.1,-9999.0,'11111222,11111222,99999999' 
ADCP,ioos:station:wmo:42890:1,2013-08-03T04:03:00Z,27.6250,-90.4410,15.2,98.0,28.5,-9999.0,'11111222,11111222,99999999' 
ADCP,ioos:station:wmo:42890:1,2013-08-03T04:23:00Z,27.6250,-90.4410,15.2,96.0,29.8,-9999.0,'11111222,11111222,99999999' 
ADCP,ioos:station:wmo:42890:1,2013-08-03T04:43:00Z,27.6250,-90.4410,15.2,95.0,31.3,-9999.0,'11111222,11111222,99999999' 
ADCP,ioos:station:wmo:42890:1,2013-08-03T05:03:00Z,27.6250,-90.4410,15.2,88.0,41.2,-9999.0,'11111222,11111222,99999999' 
ADCP,ioos:station:wmo:42890:1,2013-08-03T05:23:00Z,27.6250,-90.4410,15.2,91.0,24.0,-9999.0,'11111222,11111222,99999999' 
ADCP,ioos:station:wmo:42890:1,2013-08-03T05:43:00Z,27.6250,-90.4410,15.2,96.0,29.2,-9999.0,'11111222,11111222,99999999' 
ADCP,ioos:station:wmo:42890:1,2013-08-03T06:03:00Z,27.6250,-90.4410,15.2,102.0,21.3,-9999.0,'11111222,11111222,99999999' 
ADCP,ioos:station:wmo:42890:1,2013-08-03T06:23:00Z,27.6250,-90.4410,15.2,279.0,65.9,-9999.0,'11111222,11111222,99999999' 
ADCP,ioos:station:wmo:42890:1,2013-08-03T06:43:00Z,27.6250,-90.4410,15.2,87.0,22.7,-9999.0,'11111222,11111222,99999999' 
ADCP,ioos:station:wmo:42890:1,2013-08-03T07:03:00Z,27.6250,-90.4410,15.2,85.0,14.9,-9999.0,'11111222,11111222,99999999' 
ADCP,ioos:station:wmo:42890:1,2013-08-03T07:23:00Z,27.6250,-90.4410,15.2,94.0,22.3,-9999.0,'11111222,11111222,99999999' 
ADCP,ioos:station:wmo:42890:1,2013-08-03T07:43:00Z,27.6250,-90.4410,15.2,96.0,27.7,-9999.0,'11111222,11111222,99999999' 
ADCP,ioos:station:wmo:42890:1,2013-08-03T08:03:00Z,27.6250,-90.4410,15.2,97.0,23.7,-9999.0,'11111222,11111222,99999999' 
ADCP,ioos:station:wmo:42890:1,2013-08-03T08:23:00Z,27.6250,-90.4410,15.2,94.0,22.0,-9999.0,'11111222,11111222,99999999' 
ADCP,ioos:station:wmo:42890:1,2013-08-03T08:43:00Z,27.6250,-90.4410,15.2,101.0,20.8,-9999.0,'11111222,11111222,99999999' 
ADCP,ioos:station:wmo:42890:1,2013-08-03T09:03:00Z,27.6250,-90.4410,15.2,175.0,19.8,-9999.0,'11111222,11111222,99999999' 
ADCP,ioos:station:wmo:42890:1,2013-08-03T09:23:00Z,27.6250,-90.4410,15.2,96.0,17.8,-9999.0,'11111222,11111222,99999999' 
ADCP,ioos:station:wmo:42890:1,2013-08-03T09:43:00Z,27.6250,-90.4410,15.2,87.0,21.3,-9999.0,'11111222,11111222,99999999' 
ADCP,ioos:station:wmo:42890:1,2013-08-03T10:03:00Z,27.6250,-90.4410,15.2,76.0,25.4,-9999.0,'11111222,11111222,99999999' 
ADCP,ioos:station:wmo:42890:1,2013-08-03T10:23:00Z,27.6250,-90.4410,15.2,76.0,19.7,-9999.0,'11111222,11111222,99999999' 
ADCP,ioos:station:wmo:42890:1,2013-08-03T10:43:00Z,27.6250,-90.4410,15.2,70.0,16.5,-9999.0,'11111222,11111222,99999999' 
ADCP,ioos:station:wmo:42890:1,2013-08-03T11:03:00Z,27.6250,-90.4410,15.2,73.0,10.8,-9999.0,'11111222,11111222,99999999' 
ADCP,ioos:station:wmo:42890:1,2013-08-03T11:23:00Z,27.6250,-90.4410,15.2,59.0,9.6,-9999.0,'11133222,11111222,99999999' 
ADCP,ioos:station:wmo:42890:1,2013-08-03T11:43:00Z,27.6250,-90.4410,15.2,68.0,12.3,-9999.0,'11111222,11111222,99999999' 
ADCP,ioos:station:wmo:42890:1,2013-08-03T12:03:00Z,27.6250,-90.4410,15.2,62.0,19.2,-9999.0,'11111222,11111222,99999999' 
ADCP,ioos:station:wmo:42890:1,2013-08-03T12:23:00Z,27.6250,-90.4410,15.2,78.0,22.2,-9999.0,'11111222,11111222,99999999' 
ADCP,ioos:station:wmo:42890:1,2013-08-03T12:43:00Z,27.6250,-90.4410,15.2,75.0,20.2,-9999.0,'11111222,11111222,99999999' 
ADCP,ioos:station:wmo:42890:1,2013-08-03T13:03:00Z,27.6250,-90.4410,15.2,73.0,24.8,-9999.0,'11111222,11111222,99999999' 
ADCP,ioos:station:wmo:42890:1,2013-08-03T13:23:00Z,27.6250,-90.4410,15.2,76.0,26.7,-9999.0,'11111222,11111222,99999999' 
ADCP,ioos:station:wmo:42890:1,2013-08-03T13:43:00Z,27.6250,-90.4410,15.2,71.0,44.7,-9999.0,'11111222,11111222,99999999' 
ADCP,ioos:station:wmo:42890:1,2013-08-03T14:03:00Z,27.6250,-90.4410,15.2,70.0,29.9,-9999.0,'11111222,11111222,99999999' 
ADCP,ioos:station:wmo:42890:1,2013-08-03T14:23:00Z,27.6250,-90.4410,15.2,62.0,33.0,-9999.0,'11111222,11111222,99999999' 
ADCP,ioos:station:wmo:42890:1,2013-08-03T14:43:00Z,27.6250,-90.4410,15.2,67.0,24.9,-9999.0,'11111222,11111222,99999999' 
ADCP,ioos:station:wmo:42890:1,2013-08-03T15:03:00Z,27.6250,-90.4410,15.2,72.0,22.5,-9999.0,'11111222,11111222,99999999' 
ADCP,ioos:station:wmo:42890:1,2013-08-03T15:23:00Z,27.6250,-90.4410,15.2,71.0,28.6,-9999.0,'11111222,11111222,99999999' 
ADCP,ioos:station:wmo:42890:1,2013-08-03T15:43:00Z,27.6250,-90.4410,15.2,66.0,46.9,-9999.0,'11111222,11111222,99999999' 
ADCP,ioos:station:wmo:42890:1,2013-08-03T16:03:00Z,27.6250,-90.4410,15.2,69.0,33.6,-9999.0,'11111222,11111222,99999999' 
ADCP,ioos:station:wmo:42890:1,2013-08-03T16:23:00Z,27.6250,-90.4410,15.2,79.0,25.8,-9999.0,'11111222,11111222,99999999' 
ADCP,ioos:station:wmo:42890:1,2013-08-03T16:43:00Z,27.6250,-90.4410,15.2,83.0,28.1,-9999.0,'11111222,11111222,99999999' 
ADCP,ioos:station:wmo:42890:1,2013-08-03T17:03:00Z,27.6250,-90.4410,15.2,74.0,39.8,-9999.0,'11111222,11111222,99999999' 
ADCP,ioos:station:wmo:42890:1,2013-08-03T17:23:00Z,27.6250,-90.4410,15.2,81.0,37.3,-9999.0,'11111222,11111222,99999999' 